Regional Weather Roundup
Issued by NWS

Home | Current Version | Previous Version | Text Only | Print | Product List | Glossary Off
Versions: 1 2 3 4 5 6 7 8 9 10 11 12 13 14 15 16 17 18 19 20 21 22 23 24 25 26 27 28 29 30 31 32 33 34 35 36 37 38 39 40 41 42 43 44 45 46 47 48 49 50

000
ASUS43 KMKX 262059
RWRWI

WISCONSIN REGIONAL WEATHER ROUNDUP
NATIONAL WEATHER SERVICE MILWAUKEE/SULLIVAN WI
300 PM CST MON JAN 26 2015

NOTE: "FAIR" INDICATES FEW OR NO CLOUDS BELOW 12,000 FEET WITH NO
SIGNIFICANT WEATHER AND/OR OBSTRUCTIONS TO VISIBILITY.

WIZ001-002-006>008-014>016-023>028-262200-
NORTHWEST WISCONSIN

CITY           SKY/WX    TMP DP  RH WIND       PRES   REMARKS
SUPERIOR ARPT  CLOUDY    29  27  94 CALM      29.72S FOG
ASHLAND        CLOUDY    26  20  77 S6        29.74R WCI  19
HAYWARD        FRZ RAIN  24  21  88 S5        29.72R FOG     WCI  18
SIREN            N/A     33  31  93 MISG        N/A
CUMBERLAND     CLOUDY    27  25  93 S3        29.71R FOG
RICE LAKE      CLOUDY    26  24  91 SE3       29.73S
CHETEK         CLOUDY    25  23  91 CALM      29.73R
LADYSMITH      CLOUDY    24  22  92 S6        29.74R WCI  17
EAU CLAIRE     NOT AVBL
MENOMONIE      CLOUDY    29  26  90 E3        29.73R
NEW RICHMOND   CLOUDY    38  32  78 NW7       29.72R WCI  33
OSCEOLA        CLOUDY    40  32  75 NW5       29.75R
$$

WIZ003>005-009-010-017-018-262200-
NORTH CENTRAL WISCONSIN

CITY           SKY/WX    TMP DP  RH WIND       PRES   REMARKS
MANITOWISH WTR CLOUDY    19  15  86 S8        29.70S WCI   9
ARBOR VITAE    FLURRIES  22  18  84 S6        29.71S WCI  14
WOODRUFF       FLURRIES  22  18  84 S6        29.71S WCI  14
RHINELANDER    CLOUDY    19  14  81 S8        29.73R WCI   9
EAGLE RIVER    CLOUDY    20  15  79 S7        29.72R WCI  11
LAND O LAKES   CLOUDY    21  17  82 S6        29.72R WCI  14
PHILLIPS       CLOUDY    20  17  89 S6        29.70S WCI  12
TOMAHAWK       CLOUDY    19  15  85 CALM      29.73S
MEDFORD        CLOUDY    20  18  92 S8        29.72R FOG     WCI  11
MERRILL        FLURRIES  20  17  85 SE6       29.75R WCI  13
$$

WIZ029-030-035-036-043>047-262200-
CENTRAL WISCONSIN

CITY           SKY/WX    TMP DP  RH WIND       PRES   REMARKS
WAUSAU         CLOUDY    20  16  84 SE9       29.75R WCI   9
MOSINEE        CLOUDY    19  19 100 SE6       29.76  WCI  11
MARSHFIELD     CLOUDY    22  19  89 SE8       29.75R WCI  12
STEVENS POINT  MIX PCPN  20  18  91 SE7       29.78S WCI  11
WAUPACA        LGT SNOW  26  20  80 SE7       29.81R WCI  18
WAUTOMA        CLOUDY    23  21  93 SE6       29.81R FOG     WCI  16
WISC RAPIDS    CLOUDY    22  19  89 SE7       29.79R FOG     WCI  13
CAMP DOUGLAS   NOT AVBL
$$

WIZ011>013-019>022-031-037>040-048>050-262200-
NORTHEAST WISCONSIN

CITY           SKY/WX    TMP DP  RH WIND       PRES   REMARKS
ANTIGO         CLOUDY    19  16  87 SE9       29.75S FOG     WCI   8
SHAWANO        MIX PCPN  26  20  78 S8        29.83R WCI  17
OCONTO         CLOUDY    25  22  88 CALM      29.84S
STURGEON BAY   CLOUDY    25  19  80 S8        29.87R WCI  16
GREEN BAY      LGT SNOW  26  20  77 S10       29.84R WCI  16
MANITOWOC      FLURRIES  28  21  74 S10       29.85S WCI  19
APPLETON       LGT SNOW  25  19  80 SE10      29.82  WCI  15
CLINTONVILLE   LGT SNOW  25  21  86 S7        29.81S WCI  17
OSHKOSH        LGT SNOW  25  20  81 S9        29.82R WCI  15
$$

WIZ032>034-041-042-053>061-262200-
SOUTHWEST WISCONSIN

CITY           SKY/WX    TMP DP  RH WIND       PRES   REMARKS
LA CROSSE      CLOUDY    29  25  85 S6        29.77R WCI  23
SPARTA         MIX PCPN  26  25  98 S5        29.77R WCI  20
VIROQUA        CLOUDY    25  25 100 S6        29.73R WCI  18
BOSCOBEL       CLOUDY    26  23  88 CALM      29.80R FOG
PRAIRIE DU CHI CLOUDY    28  25  87 E3        29.77S
PLATTEVILLE    CLOUDY    24  23  96 SE10      29.77S WCI  13
$$

WIZ056-057-062-063-064-067-068-262200-
SOUTH CENTRAL WISCONSIN

CITY           SKY/WX    TMP DP  RH WIND       PRES   REMARKS
REEDSBURG      CLOUDY    22  21  94 S3        29.77S FOG
BARABOO/DELLS  CLOUDY    22  20  93 S8        29.77S FOG     WCI  13
LONE ROCK      NOT AVBL
MINERAL POINT  CLOUDY    27  23  86 S7        29.77R FOG     WCI  19
MADISON        LGT SNOW  22  19  89 S12       29.80S FOG     WCI  10
MIDDLETON      CLOUDY    24  22  92 SE8       29.80S WCI  15
WATERTOWN      LGT SNOW  24  22  90 SE8       29.82S WCI  16
MONROE         CLOUDY    23  21  93 S8        29.77F FOG     WCI  14
JANESVILLE     NOT AVBL
$$

WIZ051-052-058>065-066-070>072-262200-
SOUTHEAST WISCONSIN

CITY           SKY/WX    TMP DP  RH WIND       PRES   REMARKS
MILWAUKEE      LGT SNOW  26  20  77 SE8       29.85S WCI  18
WAUKESHA       CLOUDY    25  19  80 SE7       29.84F WCI  17
MILWAUKEE/TIMM LGT SNOW  27  19  74 SE6       29.85F WCI  20
RACINE         LGT SNOW  26  20  77 SE8       29.87S WCI  18
BURLINGTON     CLOUDY    24  20  83 SE7       29.84F WCI  16
KENOSHA        LGT SNOW  26  21  81 S7        29.85F WCI  18
FOND DU LAC    LGT SNOW  25  19  78 S10       29.82F WCI  15
SHEBOYGAN      CLOUDY    26  17  68 S13       29.84F WCI  15
WEST BEND      LGT SNOW  25  19  80 SE8       29.83F WCI  16
JUNEAU         LGT SNOW  24  21  88 SE10      29.82S WCI  13
$$

LSZ147-162-262200-
LAKE SUPERIOR

STATION/POSITION TIME  TEMP    WIND        PRES    WAVE
                       AIR SEA DIR/SP/G            HT/PER
                 (UTC) (F)     (DEG/KT/KT) (MB)    (FT/S)
DEVILS ISLAND    2000   24     160/  3/  5 1007.5R
PORT WING        2000   27     180/  2/  4 1006.4R
SAXON HARBOR     2000   26     190/  2/  8 1006.8R
$$

LMZ867-665-643>646-262200-
LAKE MICHIGAN

STATION/POSITION TIME  TEMP    WIND        PRES    WAVE
                       AIR SEA DIR/SP/G            HT/PER
                 (UTC) (F)     (DEG/KT/KT) (MB)    (FT/S)
NORTHPORT PIER   2000   25     150/ 15/ 19 1011.9S
SISTER BAY       1928   26     190/ 15/ 20   N/A
KEWAUNEE LAKESHO 2000   26     170/ 14/ 17 1010.1F
SHEBOYGAN LAKESH 2000   26     180/ 14/ 16 1012.0F
PORT WASHINGTON  2040   27     170/  8/ 12 1011.9F
MILWAUKEE LAKESH 2000   26     130/ 11/ 12   N/A
KENOSHA   LAKESH 2000   26     140/  9/ 10 1011.5F
$$

TC  - TEMPERATURE IN CELSIUS
VSB - VISIBILITY IN STATUTE MILES
WCI - WIND CHILL INDEX
HX  - HEAT INDEX



USA.gov is the U.S. government's official web portal to all federal, state and local government web resources and services.